[[{"header":{"parameterUnit":"m.s-1","parameterCategory":1,"la1":30.2991,"la2":30.254,"lo1":-89.0895,"lo2":-89.0444,"dy":0.0017,"dx":0.0017,"nx":28,"ny":28,"refTime":"2024-10-11T03:00:00:Z","depth":0,"parameterNumber":2,"parameterNumberName":"U-component_of_WINDS"},"data":[0,0,0,0,0,0,0,0,0,0,0,0,0,0,0,0,0,0,0,0,0,0,0,0,0,0,0,0,0,0,0,0,0,0,0,0,0,0,0,0,0,0,0,0,0,0,0,0,0,0,0,0,0,0,0,0,0,0,-3.0055,-3.0056,0,-3.0124,-3.0124,-3.0125,-3.0055,-3.0052,-3.005,-3.0047,-3.0119,-3.0124,-3.0128,0,0,0,0,0,0,0,0,0,0,0,0,0,-2.9868,-2.9871,-3.0055,-3.0056,-3.0057,-3.0123,-3.0124,-3.0125,-3.0055,-3.0052,-3.0049,-3.0046,-3.0118,-3.0123,-3.0128,0,0,0,0,0,0,0,0,0,0,0,0,0,-2.9944,-2.9873,-3.0055,-3.003,-3.0029,-3.0123,-3.0124,-3.0126,-3.0056,-3.0052,-3.0048,-3.0044,-3.0116,-3.0123,-3.0129,-3.0253,0,0,-3.015,-3.0153,0,0,0,0,0,0,0,0,-2.994,-2.9951,-3.0033,-3.0032,-3.003,-3.0076,-3.0085,-3.0168,-3.0057,-3.0046,-3.0047,-3.0042,-3.0109,-3.0116,-3.0137,-3.0256,-3.0259,-3.015,-3.0154,-3.0157,-3.0159,0,0,0,0,0,0,0,-2.9934,-2.9948,-3.0082,-3.0034,-3.0033,-3.0016,-3.0023,-3.01,-3.0099,-3.0046,-3.0042,-3.005,-3.0107,-3.0131,-3.0139,-3.026,-3.015,-3.0156,-3.016,-3.0163,-3.0486,-3.049,0,0,0,0,0,0,-2.9932,-2.9944,-3.008,-3.0084,-2.9974,-3.0023,-3.003,-3.0066,-3.0098,-3.0099,-3.0054,-3.0047,-3.0122,-3.0131,-3.0141,-3.0289,-3.0157,-3.0163,-3.0167,-3.0481,-3.0487,-3.0492,0,0,0,0,0,0,-2.9928,-2.9944,-3.0077,-3.0013,-3.0028,-3.0031,-3.0071,-3.0069,-3.0093,-3.0104,-3.0104,-3.0079,-3.0119,-3.0131,-3.0226,-3.0291,-3.0166,-3.0173,-3.0476,-3.0483,-3.0489,-3.0586,0,0,0,0,0,0,-2.9923,-2.9943,-2.999,-3.0014,-3.0032,-3.0161,-3.0075,-3.0074,-3.0105,-3.0096,-3.0127,-3.0128,-3.0117,-3.0216,-3.0232,-3.0298,-3.0178,-3.047,-3.0479,-3.0487,-3.0577,-3.0596,-3.0611,0,0,0,0,0,-2.9916,-3.0014,-2.9992,-3.0009,-3.009,-3.0164,-3.0175,-3.0159,-3.011,-3.0158,-3.0165,-3.0127,-3.0281,-3.0226,-3.0244,-3.0313,-3.0466,-3.0477,-3.0486,-3.057,-3.0592,-3.0611,0,0,0,0,0,0,-2.9998,-3.0017,-2.9993,-3.0102,-3.0132,-3.0152,-3.0211,-3.0183,-3.0228,-3.0218,-3.0197,-3.0204,-3.0305,-3.0318,-3.0257,-3.0435,-3.0366,-3.038,-3.0423,-3.0444,-3.0461,-3.0457,-3.0183,0,0,0,0,0,-3.0028,-3.0087,-3.01,-3.0195,-3.0211,-3.0209,-3.0241,-3.0226,-3.0257,-3.0269,-3.0283,-3.0315,-3.0371,-3.0408,-3.0459,-3.0578,-3.0585,-3.0634,-3.0651,-3.0665,-3.0678,-3.0745,-3.0767,-3.0525,-3.0525,-3.0525,0,0,-3.0092,-3.011,-3.0148,-3.0212,-3.0234,-3.0296,-3.022,-3.0288,-3.0335,-3.028,-3.037,-3.0381,-3.0416,-3.0524,-3.0572,-3.0538,-3.0747,-3.0678,-3.0689,-3.0695,-3.0757,-3.078,-3.0801,-3.0532,-3.0531,-3.053,0,0,-3.0241,-3.0259,-3.0341,-3.0365,-3.0398,-3.0396,-3.0416,-3.0441,-3.0446,-3.0536,-3.0497,-3.0552,-3.0648,-3.0674,-3.0701,-3.0861,-3.0829,-3.0878,-3.0967,-3.1032,-3.1051,-3.1068,-3.1127,-3.1149,-3.0891,-3.0891,-3.0891,0,-3.0317,-3.0407,-3.0387,-3.0459,-3.0489,-3.0442,-3.0525,-3.0549,-3.0598,-3.0621,-3.0581,-3.0702,-3.0721,-3.0836,-3.0875,-3.0897,-3.092,-3.0875,-3.105,-3.1067,-3.1082,-3.1138,-3.1161,-3.0897,-3.0896,-3.0896,-3.0895,0,-3.05,-3.0564,-3.0626,-3.0675,-3.0711,-3.0789,-3.0782,-3.0821,-3.0804,-3.0806,-3.09,-3.0921,-3.0978,-3.1003,-3.0986,-3.1116,-3.1094,-3.1053,-3.0983,-3.1111,-3.1164,-3.1185,-3.0905,-3.0903,-3.0902,-3.09,0,0,-3.0702,-3.0739,-3.0763,-3.0785,-3.0819,-3.0869,-3.0944,-3.0999,-3.1035,-3.107,-3.1134,-3.1217,-3.1179,-3.1209,-3.1195,-3.1251,-3.138,-3.1203,-3.1204,-3.1237,-3.1527,-3.1559,-3.1584,-3.1358,-3.1362,-3.1365,-3.1525,0,-3.0853,-3.0985,-3.0969,-3.1095,-3.1155,-3.1111,-3.1178,-3.1206,-3.1211,-3.1263,-3.1268,-3.1328,-3.1272,-3.1291,-3.1344,-3.1353,-3.1438,-3.1341,-3.142,-3.1423,-3.1415,-3.1611,-3.1646,-3.1795,-3.1545,-3.1548,-3.1551,0,-3.1047,-3.109,-3.1222,-3.1249,-3.1273,-3.1333,-3.1383,-3.1432,-3.1465,-3.1464,-3.1498,-3.1474,-3.1552,-3.148,-3.1588,-3.1522,-3.1554,-3.1563,-3.1568,-3.1577,-3.1496,-3.1628,-3.1842,-3.1866,-3.1583,-3.158,-3.1578,0,-3.1185,-3.1275,-3.1366,-3.1386,-3.1419,-3.1463,-3.1478,-3.1506,-3.1541,-3.1584,-3.1606,-3.1658,-3.1688,-3.1729,-3.1721,-3.1668,-3.1832,-3.1758,-3.1836,-3.1836,-3.1874,-3.1872,-3.2099,-3.189,-3.189,-3.189,-3.1889,0,-3.1356,-3.144,-3.1429,-3.1485,-3.1578,-3.1559,-3.1651,-3.1661,-3.1687,-3.1746,-3.1711,-3.1767,-3.1751,-3.1807,-3.1801,-3.1893,-3.1905,-3.1909,-3.1906,-3.1913,-3.1913,-3.1935,-3.1925,-3.1896,-3.1894,-3.1893,-3.1892,0,-3.1526,-3.1522,-3.1619,-3.1642,-3.1649,-3.1717,-3.1737,-3.1791,-3.1792,-3.1867,-3.1884,-3.1887,-3.1951,-3.1946,-3.2018,-3.2014,-3.2128,-3.2113,-3.2118,-3.2115,-3.2193,-3.2187,-3.2444,-3.2478,-3.2246,-3.2248,-3.225,0,-3.1637,-3.17,-3.173,-3.1766,-3.1785,-3.1844,-3.1879,-3.1864,-3.1902,-3.1944,-3.1993,-3.2054,-3.2102,-3.2206,-3.2216,-3.2271,-3.2258,-3.2345,-3.2267,-3.2272,-3.2263,-3.226,-3.2267,-3.2361,-3.2363,-3.2365,-3.2367,0,-3.1835,-3.183,-3.1881,-3.1933,-3.1975,-3.2015,-3.2051,-3.2083,-3.2072,-3.2117,-3.2181,-3.2219,-3.2292,-3.2354,-3.2407,-3.2424,-3.2395,-3.2391,-3.2413,-3.2421,-3.2422,-3.2425,-3.2162,-3.2386,-3.2384,-3.2383,-3.2382,-3.2381,-3.198,-3.2035,-3.2065,-3.2124,-3.2149,-3.2184,-3.2236,-3.2245,-3.2298,-3.2357,-3.2344,-3.2418,-3.245,-3.2519,-3.2541,-3.2599,-3.2569,-3.2599,-3.2607,-3.2615,-3.2625,-3.2411,-3.2609,-3.2608,-3.2608,-3.2607,-3.2607,0,-3.2178,-3.2195,-3.2249,-3.2301,-3.2348,-3.2315,-3.2354,-3.2396,-3.2461,-3.2493,-3.2541,-3.2617,-3.2676,-3.2691,-3.2748,-3.2793,-3.2781,-3.2808,-3.2806,-3.2811,-3.2648,-3.2625,-3.2817,-3.2817,-3.2817,-3.2817,-3.2817,-3.2817,-3.2287,-3.2378,-3.2377,-3.2482,-3.2498,-3.257,-3.2595,-3.2628,-3.2654,-3.274,-3.2789,-3.2798,-3.2823,-3.2883,-3.2937,-3.294,-3.2964,-3.2997,-3.2995,-3.2843,-3.2822,-3.2802,-3.2781,-3.3002,-3.3002,-3.3153,-3.3155,-3.3156]},{"header":{"parameterUnit":"m.s-1","parameterCategory":1,"la1":30.2991,"la2":30.254,"lo1":-89.0895,"lo2":-89.0444,"dy":0.0017,"dx":0.0017,"nx":28,"ny":28,"refTime":"2024-10-11T03:00:00:Z","depth":0,"parameterNumber":3,"parameterNumberName":"V-component_of_WINDS"},"data":[0,0,0,0,0,0,0,0,0,0,0,0,0,0,0,0,0,0,0,0,0,0,0,0,0,0,0,0,0,0,0,0,0,0,0,0,0,0,0,0,0,0,0,0,0,0,0,0,0,0,0,0,0,0,0,0,0,0,-1.9593,-1.9593,0,-1.9534,-1.9533,-1.9533,-1.9472,-1.9471,-1.9471,-1.947,-1.9407,-1.9406,-1.9406,0,0,0,0,0,0,0,0,0,0,0,0,0,-1.9652,-1.9651,-1.9593,-1.9593,-1.9592,-1.9534,-1.9533,-1.9532,-1.9472,-1.9471,-1.947,-1.9469,-1.9408,-1.9407,-1.9405,0,0,0,0,0,0,0,0,0,0,0,0,0,-1.9613,-1.9651,-1.9594,-1.9555,-1.9551,-1.9534,-1.9533,-1.9532,-1.9473,-1.9471,-1.947,-1.9469,-1.9408,-1.9407,-1.9405,-1.9421,0,0,-1.9401,-1.9401,0,0,0,0,0,0,0,0,-1.9615,-1.9611,-1.9561,-1.9558,-1.9553,-1.9509,-1.9531,-1.9495,-1.9473,-1.9502,-1.947,-1.9468,-1.9442,-1.9438,-1.9429,-1.9418,-1.9416,-1.9401,-1.94,-1.94,-1.9399,0,0,0,0,0,0,0,-1.9618,-1.9613,-1.957,-1.9561,-1.9556,-1.954,-1.9533,-1.9524,-1.948,-1.95,-1.9495,-1.9489,-1.944,-1.9431,-1.9427,-1.9415,-1.9401,-1.94,-1.9399,-1.9398,-1.9412,-1.9413,0,0,0,0,0,0,-1.9627,-1.9616,-1.9572,-1.9568,-1.9582,-1.954,-1.9532,-1.9525,-1.948,-1.9472,-1.949,-1.9486,-1.9434,-1.9429,-1.9425,-1.944,-1.94,-1.9398,-1.9398,-1.9411,-1.9412,-1.9414,0,0,0,0,0,0,-1.9629,-1.9624,-1.9574,-1.9591,-1.9583,-1.954,-1.9532,-1.9524,-1.9515,-1.9472,-1.9464,-1.9489,-1.9433,-1.9427,-1.9422,-1.9437,-1.9398,-1.9396,-1.9409,-1.9411,-1.9413,-1.947,0,0,0,0,0,0,-1.9631,-1.9625,-1.9631,-1.9591,-1.9583,-1.9574,-1.9533,-1.9524,-1.9513,-1.9508,-1.947,-1.9462,-1.9431,-1.9425,-1.9421,-1.9434,-1.9395,-1.9408,-1.941,-1.9412,-1.9467,-1.9474,-1.948,0,0,0,0,0,-1.9633,-1.965,-1.9632,-1.9627,-1.959,-1.9575,-1.9569,-1.9534,-1.9515,-1.952,-1.9492,-1.9463,-1.9436,-1.9425,-1.942,-1.9433,-1.9407,-1.941,-1.9412,-1.9464,-1.9473,-1.948,0,0,0,0,0,0,-1.9692,-1.9644,-1.9623,-1.9628,-1.9606,-1.9564,-1.957,-1.9544,-1.9527,-1.9523,-1.9479,-1.947,-1.9471,-1.9451,-1.944,-1.9445,-1.9417,-1.9419,-1.9458,-1.9466,-1.9472,-1.9477,-1.9394,0,0,0,0,0,-1.9705,-1.9698,-1.9656,-1.9664,-1.9654,-1.9614,-1.9606,-1.9581,-1.9556,-1.9546,-1.9518,-1.9495,-1.948,-1.9472,-1.9457,-1.9464,-1.9454,-1.947,-1.9477,-1.9482,-1.9484,-1.9485,-1.9492,-1.9422,-1.9422,-1.9422,0,0,-1.9733,-1.9706,-1.9704,-1.9675,-1.9655,-1.9647,-1.9607,-1.96,-1.9594,-1.9545,-1.9539,-1.9518,-1.9488,-1.9489,-1.9488,-1.9473,-1.9501,-1.9485,-1.949,-1.9489,-1.9489,-1.9495,-1.9501,-1.9424,-1.9424,-1.9423,0,0,-1.978,-1.9759,-1.9763,-1.9743,-1.9714,-1.9687,-1.9688,-1.965,-1.9634,-1.9628,-1.959,-1.9581,-1.9558,-1.9538,-1.9525,-1.9563,-1.9535,-1.956,-1.9593,-1.9595,-1.96,-1.9605,-1.9617,-1.9623,-1.9562,-1.9562,-1.9562,0,-1.9818,-1.9806,-1.9768,-1.9764,-1.9752,-1.9707,-1.971,-1.9693,-1.9659,-1.9652,-1.9635,-1.9604,-1.9581,-1.9577,-1.9586,-1.9577,-1.9576,-1.9564,-1.9602,-1.9607,-1.961,-1.9622,-1.9627,-1.9565,-1.9565,-1.9564,-1.9564,0,-1.9854,-1.9846,-1.9852,-1.9822,-1.981,-1.981,-1.9771,-1.9763,-1.9738,-1.9713,-1.9706,-1.9677,-1.9654,-1.9651,-1.9627,-1.9643,-1.9634,-1.9611,-1.9581,-1.9621,-1.9631,-1.9635,-1.9569,-1.9568,-1.9567,-1.9567,0,0,-1.9937,-1.9885,-1.9888,-1.9873,-1.9836,-1.9828,-1.9825,-1.9803,-1.9797,-1.9775,-1.9771,-1.9752,-1.9729,-1.9715,-1.9687,-1.9689,-1.972,-1.9665,-1.9663,-1.9675,-1.9734,-1.9752,-1.9758,-1.9701,-1.9701,-1.9702,-1.9736,0,-1.9977,-1.997,-1.9935,-1.9937,-1.9929,-1.9885,-1.9882,-1.9859,-1.9835,-1.9823,-1.9796,-1.9783,-1.9755,-1.9745,-1.9745,-1.9716,-1.9731,-1.9713,-1.9695,-1.9695,-1.9704,-1.9763,-1.9782,-1.9816,-1.974,-1.9741,-1.9741,0,-2.0024,-2.0005,-2.0006,-1.9969,-1.9964,-1.9962,-1.9938,-1.9928,-1.99,-1.9882,-1.9865,-1.9835,-1.9827,-1.98,-1.9789,-1.9778,-1.9768,-1.9753,-1.9753,-1.975,-1.9721,-1.9761,-1.9826,-1.9831,-1.9747,-1.9747,-1.9746,0,-2.0084,-2.0058,-2.0056,-2.0044,-2.0,-2.0,-1.9981,-1.9952,-1.9941,-1.992,-1.9912,-1.9891,-1.9879,-1.9862,-1.9826,-1.981,-1.9819,-1.9789,-1.9803,-1.9804,-1.9807,-1.9807,-1.9871,-1.9801,-1.9801,-1.9801,-1.9801,0,-2.0132,-2.0135,-2.0082,-2.0081,-2.0081,-2.0041,-2.0042,-2.002,-1.9994,-1.9986,-1.9947,-1.994,-1.9893,-1.9881,-1.9852,-1.9847,-1.9842,-1.9827,-1.9819,-1.983,-1.9832,-1.9823,-1.982,-1.9802,-1.9802,-1.9802,-1.9802,0,-2.0199,-2.0164,-2.0159,-2.0117,-2.0107,-2.0109,-2.0073,-2.0069,-2.0043,-2.0033,-2.0029,-1.9987,-1.997,-1.9932,-1.9905,-1.9886,-1.9887,-1.9874,-1.9897,-1.9892,-1.9909,-1.9908,-1.9969,-1.9974,-1.9902,-1.9903,-1.9903,0,-2.0233,-2.0234,-2.0192,-2.0185,-2.0168,-2.0156,-2.0144,-2.0104,-2.0093,-2.006,-2.006,-2.004,-2.0022,-1.9997,-1.9963,-1.9942,-1.9928,-1.995,-1.9924,-1.9935,-1.9927,-1.9928,-1.9927,-1.9956,-1.9957,-1.9958,-1.9959,0,-2.0295,-2.0278,-2.0263,-2.0242,-2.0229,-2.021,-2.0189,-2.0184,-2.0138,-2.0128,-2.011,-2.0097,-2.0069,-2.0049,-2.0023,-2.0002,-1.9973,-1.9967,-1.9969,-1.9981,-1.9994,-1.9986,-1.9913,-1.9966,-1.9965,-1.9965,-1.9964,-1.9964,-2.0346,-2.0345,-2.0315,-2.0299,-2.0279,-2.026,-2.0254,-2.0226,-2.0211,-2.0186,-2.0163,-2.0147,-2.0117,-2.0079,-2.006,-2.0047,-2.0032,-2.0035,-2.0036,-2.0037,-2.0042,-1.9996,-2.0042,-2.0041,-2.0041,-2.0041,-2.0041,0,-2.0406,-2.0385,-2.0371,-2.0343,-2.033,-2.0303,-2.0278,-2.0269,-2.0256,-2.0231,-2.0214,-2.0194,-2.0174,-2.0138,-2.0116,-2.0111,-2.0097,-2.0107,-2.0107,-2.0102,-2.0057,-2.0057,-2.0119,-2.0119,-2.0119,-2.0119,-2.0119,-2.0119,-2.0436,-2.0432,-2.0411,-2.0395,-2.0373,-2.0359,-2.0346,-2.0328,-2.0307,-2.0286,-2.027,-2.0247,-2.0217,-2.0192,-2.0172,-2.0162,-2.0155,-2.0169,-2.0155,-2.0113,-2.0105,-2.0098,-2.0098,-2.0168,-2.0168,-2.0201,-2.0201,-2.0202]}]]